�N����,����,�~����,�C��,���x,�C��,����,���ϕ���,�ő�u�ԕ���,�ő厞����,���˗�,�I�_���x,�n�����x,�ő啗���N��,DTYPE
"16/09/21","00:10",0.0,19.6,93.6,1006.4,306.4,0.8,1.3,325.9,0.00,18.6,21.6,"00:02:08",1
"16/09/21","00:20",0.0,19.7,93.6,1006.7,309.3,0.7,1.9,339.9,0.00,18.7,21.6,"00:14:08",1
"16/09/21","00:30",0.0,19.8,93.4,1006.7,310.4,1.0,1.9,338.4,0.00,18.7,21.7,"00:22:56",1
"16/09/21","00:40",0.0,19.8,93.1,1006.4,306.5,1.0,2.0,312.2,0.00,18.7,21.4,"00:34:32",1
"16/09/21","00:50",0.0,19.7,92.9,1006.7,314.1,1.1,2.1,338.3,0.00,18.6,21.5,"00:46:48",1
"16/09/21","01:00",0.0,19.7,92.8,1006.9,312.1,1.3,2.1,319.0,0.00,18.5,21.5,"00:54:00",1
"16/09/21","01:10",0.0,19.7,92.8,1007.4,305.2,1.0,2.1,315.9,0.00,18.5,21.7,"01:03:20",1
"16/09/21","01:20",0.0,19.7,92.9,1007.1,313.2,1.1,2.2,343.7,0.00,18.6,21.5,"01:19:04",1
"16/09/21","01:30",0.0,19.7,92.9,1007.1,323.6,1.5,2.9,347.6,0.00,18.6,21.6,"01:26:00",1
"16/09/21","01:40",0.0,19.8,92.8,1007.4,321.4,1.5,3.5,0.2,0.00,18.6,21.5,"01:38:40",1
"16/09/21","01:50",0.0,19.8,92.7,1007.4,316.6,1.3,3.3,334.3,0.00,18.6,21.5,"01:44:56",1
"16/09/21","02:00",0.0,19.7,92.7,1007.4,318.4,1.2,2.2,359.8,0.00,18.5,21.4,"01:51:04",1
"16/09/21","02:10",0.0,19.8,92.7,1007.6,329.2,1.3,2.8,338.9,0.00,18.6,21.3,"02:08:48",1
"16/09/21","02:20",0.0,19.8,92.8,1007.6,321.7,1.5,3.2,340.2,0.00,18.6,21.4,"02:10:40",1
"16/09/21","02:30",0.0,19.7,92.9,1007.4,315.8,1.3,2.8,337.6,0.00,18.6,21.4,"02:20:24",1
"16/09/21","02:40",0.0,19.7,93.1,1007.8,318.2,1.1,1.9,328.4,0.00,18.6,21.6,"02:31:28",1
"16/09/21","02:50",0.0,19.7,93.1,1007.8,318.3,1.2,2.8,340.7,0.00,18.6,21.5,"02:46:16",1
"16/09/21","03:00",0.0,19.7,93.1,1007.8,316.9,1.0,1.7,334.9,0.00,18.6,21.6,"02:54:16",1
"16/09/21","03:10",0.0,19.8,93.1,1007.6,333.5,1.1,2.0,340.6,0.00,18.7,21.5,"03:09:08",1
"16/09/21","03:20",0.0,19.8,93.0,1007.8,327.2,1.2,1.9,323.2,0.00,18.7,21.6,"03:10:56",1
"16/09/21","03:30",0.0,19.7,93.1,1008.1,322.1,1.2,1.9,337.0,0.00,18.6,21.3,"03:23:36",1
"16/09/21","03:40",0.0,19.7,93.2,1008.6,314.9,1.0,1.9,338.8,0.00,18.6,21.6,"03:33:12",1
"16/09/21","03:50",0.0,19.6,93.4,1008.6,317.7,1.1,2.7,337.5,0.00,18.5,21.7,"03:47:52",1
"16/09/21","04:00",0.0,19.6,93.5,1008.8,325.4,1.2,2.8,346.6,0.00,18.6,21.8,"03:57:52",1
"16/09/21","04:10",0.0,19.6,93.5,1009.0,334.8,1.2,2.2,333.6,0.00,18.6,21.5,"04:02:24",1
"16/09/21","04:20",0.0,19.6,93.5,1009.0,338.9,1.1,2.4,323.9,0.00,18.6,21.7,"04:19:20",1
"16/09/21","04:30",0.0,19.6,93.6,1009.0,327.7,1.3,2.8,322.8,0.00,18.6,21.6,"04:25:12",1
"16/09/21","04:40",0.0,19.6,93.9,1009.0,305.5,0.7,1.4,330.7,0.00,18.6,21.6,"04:32:24",1
"16/09/21","04:50",0.0,19.5,94.0,1008.8,307.0,1.0,1.4,334.0,0.00,18.5,21.4,"04:49:44",1
"16/09/21","05:00",0.0,19.5,94.3,1009.3,311.2,0.8,1.3,332.9,0.00,18.6,21.6,"04:51:12",1
"16/09/21","05:10",0.0,19.5,94.3,1009.5,305.5,0.8,1.2,315.9,0.00,18.6,21.6,"05:02:56",1
"16/09/21","05:20",0.0,19.5,94.5,1009.3,315.3,1.0,1.4,320.5,0.00,18.6,21.7,"05:15:52",1
"16/09/21","05:30",0.0,19.5,94.6,1009.3,322.5,1.0,1.4,317.0,0.00,18.7,21.7,"05:26:00",1
"16/09/21","05:40",0.0,19.5,94.7,1009.5,299.0,0.8,1.1,321.6,0.00,18.7,21.5,"05:30:08",1
"16/09/21","05:50",0.0,19.5,94.7,1010.0,313.9,1.0,1.4,320.1,0.00,18.7,21.6,"05:49:36",1
"16/09/21","06:00",0.0,19.6,95.0,1010.2,313.0,1.2,1.4,325.6,0.00,18.8,21.5,"05:50:24",1
"16/09/21","06:10",0.0,19.6,95.0,1010.0,315.2,0.8,1.1,314.5,0.00,18.8,21.5,"06:01:28",1
"16/09/21","06:20",0.0,19.6,95.1,1010.0,326.1,1.0,1.3,327.5,0.00,18.8,21.5,"06:12:08",1
"16/09/21","06:30",0.0,19.7,95.0,1010.4,310.6,0.8,1.3,327.5,0.00,18.9,21.6,"06:20:02",1
"16/09/21","06:40",0.0,19.7,94.8,1010.2,314.9,1.0,1.4,320.3,0.00,18.9,21.6,"06:30:08",1
"16/09/21","06:50",0.0,20.0,94.5,1010.4,314.1,1.0,1.4,333.3,0.01,19.1,21.8,"06:40:02",1
"16/09/21","07:00",0.0,20.1,94.4,1010.7,326.7,1.0,1.7,332.3,0.01,19.2,21.8,"06:57:52",1
"16/09/21","07:10",0.0,20.3,94.1,1010.7,329.3,1.1,1.6,331.8,0.02,19.4,21.6,"07:03:20",1
"16/09/21","07:20",0.0,20.4,93.5,1010.9,330.6,1.1,2.4,359.8,0.02,19.4,21.7,"07:15:28",1
"16/09/21","07:30",0.0,20.5,92.9,1010.9,328.2,1.2,2.6,340.3,0.02,19.4,21.7,"07:26:48",1
"16/09/21","07:40",0.0,20.5,92.3,1010.9,320.7,1.0,1.8,351.5,0.01,19.2,21.6,"07:37:28",1
"16/09/21","07:50",0.0,20.7,92.0,1010.9,333.1,1.2,2.6,341.2,0.04,19.4,21.8,"07:48:24",1
"16/09/21","08:00",0.0,21.0,91.5,1011.4,306.9,0.8,2.1,0.2,0.05,19.6,21.8,"07:53:52",1
"16/09/21","08:10",0.0,21.2,90.9,1011.4,311.8,0.7,1.3,348.6,0.05,19.7,21.9,"08:04:32",1
"16/09/21","08:20",0.0,21.3,90.6,1011.6,322.2,1.0,2.4,349.2,0.06,19.7,21.9,"08:16:40",1
"16/09/21","08:30",0.0,21.6,89.4,1011.2,321.7,0.7,1.9,343.7,0.09,19.8,22.0,"08:20:32",1
"16/09/21","08:40",0.0,22.1,87.8,1011.2,327.8,0.7,1.6,331.6,0.12,20.0,22.1,"08:31:52",1
"16/09/21","08:50",0.0,22.2,87.1,1011.2,337.2,0.5,1.6,346.3,0.13,20.0,22.2,"08:49:28",1
"16/09/21","09:00",0.0,22.2,85.7,1011.2,348.6,0.8,1.9,342.5,0.13,19.7,22.4,"08:52:56",1
"16/09/21","09:10",0.0,22.5,84.9,1011.4,349.4,0.7,1.7,346.5,0.18,19.9,22.5,"09:01:52",1
"16/09/21","09:20",0.0,22.3,85.6,1011.4,88.6,0.3,1.2,141.5,0.15,19.8,22.6,"09:13:20",1
"16/09/21","09:30",0.0,22.8,85.2,1011.9,19.7,0.3,0.8,125.7,0.17,20.2,22.6,"09:20:56",1
"16/09/21","09:40",0.0,22.8,83.7,1011.6,356.4,0.5,1.6,334.2,0.13,19.9,22.7,"09:37:04",1
"16/09/21","09:50",0.0,22.7,84.3,1012.1,233.6,0.6,1.6,228.9,0.12,20.0,22.7,"09:48:40",1
"16/09/21","10:00",0.0,23.0,85.0,1011.9,242.6,0.7,1.8,227.7,0.15,20.4,22.9,"09:57:36",1
"16/09/21","10:10",0.0,23.4,81.8,1011.6,343.0,0.3,1.0,344.9,0.21,20.2,23.1,"10:09:20",1
"16/09/21","10:20",0.0,23.9,82.0,1011.6,192.7,0.5,1.7,206.9,0.24,20.7,23.1,"10:14:24",1
"16/09/21","10:30",0.0,23.8,79.6,1012.1,4.5,0.8,1.8,358.1,0.25,20.1,23.3,"10:21:04",1
"16/09/21","10:40",0.0,24.3,79.2,1011.6,351.2,0.6,1.7,322.9,0.28,20.5,23.2,"10:37:36",1
"16/09/21","10:50",0.0,24.1,78.4,1011.9,347.2,0.6,1.6,339.1,0.24,20.1,23.4,"10:42:16",1
"16/09/21","11:00",0.0,24.7,77.9,1012.1,290.7,0.3,1.1,344.6,0.28,20.6,23.5,"10:58:56",1
"16/09/21","11:10",0.0,25.0,76.4,1011.6,349.0,0.5,1.7,2.2,0.35,20.6,23.8,"11:04:48",1
"16/09/21","11:20",0.0,26.3,74.0,1011.6,343.0,0.6,1.6,4.6,0.58,21.3,24.0,"11:17:36",1
"16/09/21","11:30",0.0,26.4,72.7,1010.7,77.4,0.6,1.7,125.4,0.47,21.1,23.9,"11:25:44",1
"16/09/21","11:40",0.0,25.9,76.0,1010.4,135.9,0.6,1.6,119.2,0.32,21.4,24.6,"11:36:08",1
"16/09/21","11:50",0.0,25.8,76.3,1010.9,238.3,0.5,1.4,223.4,0.24,21.4,24.7,"11:40:56",1
"16/09/21","12:00",0.0,25.4,75.6,1010.7,270.6,0.6,1.8,218.9,0.24,20.8,24.7,"11:53:44",1
"16/09/21","12:10",0.0,25.7,73.1,1010.4,293.1,0.6,2.0,229.9,0.26,20.6,24.9,"12:01:04",1
"16/09/21","12:20",0.0,26.1,72.0,1010.2,220.5,0.5,1.9,350.6,0.25,20.7,25.0,"12:19:36",1
"16/09/21","12:30",0.0,26.0,71.6,1010.0,53.5,0.6,1.3,79.4,0.29,20.5,24.9,"12:20:32",1
"16/09/21","12:40",0.0,26.6,71.2,1010.0,338.4,0.6,1.7,349.9,0.35,21.0,25.2,"12:39:44",1
"16/09/21","12:50",0.0,26.6,70.9,1010.2,342.0,0.6,1.7,358.2,0.27,20.9,25.2,"12:46:08",1
"16/09/21","13:00",0.0,26.3,72.8,1009.7,28.5,0.6,1.9,62.0,0.18,21.1,25.6,"12:52:32",1
"16/09/21","13:10",0.0,25.9,71.8,1009.7,33.3,0.8,2.7,65.8,0.13,20.5,25.4,"13:05:44",1
"16/09/21","13:20",0.0,25.9,71.5,1010.2,2.2,0.8,2.1,355.0,0.12,20.4,25.2,"13:17:44",1
"16/09/21","13:30",0.0,26.0,71.2,1010.2,332.4,0.7,1.8,354.8,0.08,20.4,25.5,"13:25:52",1
"16/09/21","13:40",0.0,25.9,72.3,1010.0,354.4,0.7,1.4,357.0,0.08,20.6,25.4,"13:31:04",1
"16/09/21","13:50",0.0,25.8,72.4,1009.7,302.9,0.3,0.9,294.5,0.05,20.5,25.3,"13:44:48",1
"16/09/21","14:00",0.0,25.3,73.7,1009.7,156.1,0.5,1.3,149.6,0.02,20.3,25.3,"13:53:12",1
"16/09/21","14:10",0.0,24.8,76.8,1010.0,139.2,1.0,2.6,113.3,0.03,20.5,25.0,"14:05:04",1
"16/09/21","14:20",0.0,24.4,78.8,1010.2,114.8,0.7,1.7,130.9,0.05,20.5,25.0,"14:13:36",1
"16/09/21","14:30",0.0,24.2,80.4,1010.7,106.5,0.7,2.0,132.1,0.05,20.7,25.0,"14:21:36",1
"16/09/21","14:40",0.0,24.1,80.5,1010.7,135.9,0.6,2.4,86.8,0.04,20.6,24.7,"14:31:04",1
"16/09/21","14:50",0.0,23.9,80.9,1010.7,107.1,0.5,1.4,155.2,0.05,20.5,24.9,"14:48:08",1
"16/09/21","15:00",0.0,23.9,82.2,1010.9,33.2,0.6,1.9,71.2,0.11,20.7,25.1,"14:52:56",1
"16/09/21","15:10",0.0,24.1,82.1,1010.9,356.3,0.5,1.6,88.4,0.08,20.9,25.0,"15:06:40",1
"16/09/21","15:20",0.0,23.9,82.5,1010.7,135.8,0.6,1.4,252.9,0.06,20.8,24.7,"15:12:56",1
"16/09/21","15:30",0.0,23.8,84.7,1010.7,42.6,0.5,1.4,105.9,0.11,21.1,24.7,"15:29:12",1
"16/09/21","15:40",0.0,23.4,85.9,1010.7,126.3,0.5,1.7,102.1,0.11,20.9,24.9,"15:32:00",1
"16/09/21","15:50",0.0,23.7,86.5,1010.9,73.7,0.6,1.6,126.0,0.10,21.4,24.7,"15:42:56",1
"16/09/21","16:00",0.0,23.6,85.4,1011.2,77.7,0.6,1.2,62.9,0.07,21.0,24.8,"15:53:28",1
"16/09/21","16:10",0.0,23.4,85.5,1011.2,45.4,0.5,1.3,111.9,0.03,20.9,24.7,"16:01:28",1
"16/09/21","16:20",0.0,23.0,86.6,1011.2,69.5,0.6,1.3,118.2,0.00,20.7,24.7,"16:16:08",1
"16/09/21","16:30",0.0,22.8,88.2,1011.4,38.8,0.6,1.9,61.2,0.00,20.8,24.6,"16:22:40",1
"16/09/21","16:40",0.0,22.5,89.3,1011.4,337.1,0.5,1.0,45.0,0.00,20.7,24.6,"16:34:00",1
"16/09/21","16:50",0.0,22.4,90.1,1011.4,286.2,0.5,1.8,334.4,0.00,20.7,24.5,"16:42:40",1
"16/09/21","17:00",0.0,22.2,90.7,1011.4,224.3,0.2,0.6,300.2,0.00,20.6,24.5,"16:56:00",1
"16/09/21","17:10",0.4,22.1,91.5,1011.4,276.4,0.3,0.8,312.4,0.00,20.7,24.4,"17:08:00",1
"16/09/21","17:20",0.4,22.1,91.8,1011.6,305.9,0.2,0.6,321.8,0.00,20.7,24.5,"17:12:48",1
"16/09/21","17:30",0.2,21.9,92.0,1011.6,312.5,0.3,0.8,311.9,0.00,20.6,24.4,"17:26:16",1
"16/09/21","17:40",0.0,21.8,92.5,1011.4,306.0,0.3,0.6,337.4,0.00,20.6,24.3,"17:39:36",1
"16/09/21","17:50",0.0,21.7,92.9,1011.4,301.4,0.2,0.8,345.3,0.00,20.5,24.1,"17:42:32",1
"16/09/21","18:00",0.0,21.6,93.3,1011.9,301.1,0.3,1.1,237.2,0.00,20.5,23.9,"17:52:48",1
"16/09/21","18:10",0.2,21.6,93.6,1012.1,325.0,0.2,0.6,336.6,0.00,20.6,24.0,"18:08:00",1
"16/09/21","18:20",0.0,21.5,93.8,1011.9,309.3,0.1,0.6,256.3,0.00,20.5,23.8,"18:11:04",1
"16/09/21","18:30",0.2,21.5,94.1,1011.9,312.5,0.2,0.8,334.3,0.00,20.6,24.1,"18:26:08",1
"16/09/21","18:40",0.2,21.4,94.2,1012.1,342.3,0.1,0.9,4.1,0.00,20.5,23.9,"18:39:12",1
"16/09/21","18:50",0.0,21.4,94.3,1011.9,15.5,0.1,0.5,330.7,0.00,20.5,23.9,"18:45:04",1
"16/09/21","19:00",0.0,21.3,94.5,1012.3,352.5,0.0,0.4,24.8,0.00,20.4,23.8,"18:53:36",1
"16/09/21","19:10",0.0,21.2,94.7,1012.3,204.2,0.0,0.3,23.1,0.00,20.4,23.9,"19:06:00",1
"16/09/21","19:20",0.2,21.2,94.9,1012.6,64.3,0.0,0.6,38.3,0.00,20.4,23.7,"19:11:44",1
"16/09/21","19:30",0.0,21.2,94.9,1012.3,77.6,0.1,0.5,36.7,0.00,20.4,23.5,"19:21:36",1
"16/09/21","19:40",0.2,21.1,95.0,1012.1,65.4,0.3,0.9,61.9,0.00,20.3,23.6,"19:37:44",1
"16/09/21","19:50",0.2,21.1,95.1,1012.1,62.7,0.7,1.3,33.4,0.00,20.3,23.4,"19:42:40",1
"16/09/21","20:00",0.0,21.1,95.3,1012.6,84.0,0.5,0.8,48.6,0.00,20.4,23.6,"19:51:52",1
"16/09/21","20:10",0.0,21.0,95.2,1012.6,86.6,0.5,0.8,58.0,0.00,20.2,23.7,"20:04:16",1
"16/09/21","20:20",0.0,21.0,95.3,1012.8,82.7,0.3,1.1,40.2,0.00,20.3,23.3,"20:11:04",1
"16/09/21","20:30",0.0,21.0,95.4,1012.3,74.3,0.6,1.0,47.6,0.00,20.3,23.3,"20:23:12",1
"16/09/21","20:40",0.0,21.0,95.5,1012.6,85.5,0.6,0.9,48.3,0.00,20.3,23.6,"20:30:24",1
"16/09/21","20:50",0.0,21.0,95.5,1012.6,68.7,0.5,1.0,38.6,0.00,20.3,23.2,"20:49:44",1
"16/09/21","21:00",0.0,21.0,95.6,1012.6,101.2,0.3,0.5,65.3,0.00,20.3,23.4,"20:50:08",1
"16/09/21","21:10",0.0,20.9,95.6,1012.8,67.5,0.6,1.0,68.5,0.00,20.2,23.5,"21:07:52",1
"16/09/21","21:20",0.0,20.9,95.6,1012.6,79.6,0.3,1.0,55.4,0.00,20.2,23.2,"21:10:48",1
"16/09/21","21:30",0.0,20.9,95.7,1012.3,52.5,0.6,1.0,43.6,0.00,20.2,23.3,"21:21:20",1
"16/09/21","21:40",0.0,20.9,95.8,1012.6,88.3,0.3,0.8,77.6,0.00,20.2,23.6,"21:33:20",1
"16/09/21","21:50",0.0,20.8,95.8,1012.8,67.9,0.5,0.6,61.8,0.00,20.1,23.3,"21:40:08",1
"16/09/21","22:00",0.0,20.9,95.8,1012.8,82.7,0.2,0.6,80.6,0.00,20.2,23.4,"21:59:12",1
"16/09/21","22:10",0.0,20.9,95.9,1012.8,61.2,0.5,1.1,33.1,0.00,20.3,23.0,"22:02:48",1
"16/09/21","22:20",0.0,20.9,95.9,1012.6,62.6,0.3,1.3,40.0,0.00,20.3,23.3,"22:18:40",1
"16/09/21","22:30",0.0,20.9,95.9,1012.8,70.5,0.5,1.0,29.4,0.00,20.3,23.1,"22:21:28",1
"16/09/21","22:40",0.0,20.9,96.0,1012.8,48.0,0.7,1.1,51.8,0.00,20.3,23.2,"22:39:04",1
"16/09/21","22:50",0.0,20.9,96.0,1012.6,70.0,0.2,0.6,27.1,0.00,20.3,23.2,"22:40:16",1
"16/09/21","23:00",0.0,20.9,96.0,1012.8,62.9,0.3,0.9,48.3,0.00,20.3,23.2,"22:53:04",1
"16/09/21","23:10",0.0,20.9,96.0,1012.6,73.6,0.3,0.9,44.4,0.00,20.3,23.1,"23:02:40",1
"16/09/21","23:20",0.0,20.9,96.1,1012.6,57.2,0.3,0.8,37.0,0.00,20.3,23.1,"23:17:52",1
"16/09/21","23:30",0.0,20.9,96.1,1012.6,44.1,0.6,1.1,45.4,0.00,20.3,23.0,"23:24:48",1
"16/09/21","23:40",0.0,20.9,96.2,1012.3,52.5,0.5,0.9,30.6,0.00,20.3,23.1,"23:30:08",1
"16/09/21","23:50",0.0,20.9,96.1,1012.6,56.3,0.3,0.9,34.9,0.00,20.3,23.0,"23:42:00",1
"16/09/21","24:00",0.0,20.9,96.2,1012.6,48.5,0.2,0.8,31.9,0.00,20.3,22.9,"23:53:44",1
